Change the Weather History Date:

Wednesday, January 16, 2013

  Actual Average (KRDM) Record (KRDM)
Temperature  
Mean Temperature 34 °F 33 °F  
Max Temperature 50 °F 42 °F 62 °F (1976)
Min Temperature 17 °F 23 °F -5 °F (1957)
Degree Days  
Heating Degree Days 32 32  
Month to date heating degree days 529  
Since 1 July heating degree days 3369  
Cooling Degree Days 0 0  
Month to date cooling degree days 0  
Year to date cooling degree days 0  
Moisture  
Dew Point 8 °F    
Average Humidity 40    
Maximum Humidity 59    
Minimum Humidity 16    
Precipitation  
Precipitation 0.00 in 0.03 in 0.68 in (1971)
Month to date precipitation 0.55  
Year to date precipitation 0.55  
Sea Level Pressure  
Sea Level Pressure 30.51 in    
Wind  
Wind Speed 7 mph (SE)    
Max Wind Speed 12 mph    
Max Gust Speed -    
Visibility 10 miles    
Events      
T = Trace of Precipitation, MM = Missing Value Source: NWS Daily Summary

Daily Weather History Graph

Daily Weather History Graph

Search for Another Location

Airport or City:

Trip Planner

Search our weather history database for the weather conditions in past years. The results will help you decide how hot, cold, wet, or windy it might be!

Date:

Astronomy

Jan. 16, 2013 Rise Set
Actual Time 7:35 AM PST 4:54 PM PST
Civil Twilight 7:03 AM PST 5:26 PM PST
Nautical Twilight 6:28 AM PST 6:01 PM PST
Astronomical Twilight 5:53 AM PST 6:36 PM PST
Moon 10:01 AM PST (1/16) 11:05 PM PST (1/16)
Length of Visible Light 10h 22m
Length of Day
9h 18m
Waxing Crescent, 29% of the Moon is Illuminated
Jan 16
Waxing Crescent
Jan 18
First Quarter
Jan 26
Full
Feb 3
Last Quarter
Feb 9
New

Hourly Weather History & Observations

Time (PST) Temp. Windchill Dew Point Humidity Pressure Visibility Wind Dir Wind Speed Gust Speed Precip Events Conditions
12:35 AM 24.8 °F 15.3 °F 8.6 °F 50% 30.55 in 10.0 mi SE 9.2 mph - N/A   Clear
12:55 AM 24.8 °F 16.1 °F 8.6 °F 50% 30.55 in 10.0 mi SE 8.1 mph - N/A   Clear
1:15 AM 24.8 °F 15.3 °F 8.6 °F 50% 30.55 in 10.0 mi SE 9.2 mph - N/A   Clear
1:35 AM 24.8 °F 15.3 °F 8.6 °F 50% 30.56 in 10.0 mi SE 9.2 mph - N/A   Clear
1:55 AM 23.0 °F 13.9 °F 8.6 °F 54% 30.56 in 10.0 mi SE 8.1 mph - N/A   Clear
2:15 AM 24.8 °F 16.9 °F 8.6 °F 50% 30.56 in 10.0 mi SE 6.9 mph - N/A   Clear
2:35 AM 23.0 °F 13.9 °F 6.8 °F 50% 30.57 in 10.0 mi SE 8.1 mph - N/A   Clear
2:55 AM 23.0 °F 14.7 °F 6.8 °F 50% 30.57 in 10.0 mi SE 6.9 mph - N/A   Clear
3:35 AM 23.0 °F 13.1 °F 6.8 °F 50% 30.56 in 10.0 mi SE 9.2 mph - N/A   Clear
4:35 AM 21.2 °F 10.9 °F 6.8 °F 54% 30.55 in 10.0 mi SE 9.2 mph - N/A   Clear
4:55 AM 19.4 °F 10.4 °F 6.8 °F 58% 30.55 in 10.0 mi SE 6.9 mph - N/A   Clear
5:15 AM 19.4 °F 10.4 °F 6.8 °F 58% 30.54 in 10.0 mi SE 6.9 mph - N/A   Clear
5:35 AM 19.4 °F 9.5 °F 6.8 °F 58% 30.54 in 10.0 mi ESE 8.1 mph - N/A   Clear
5:55 AM 19.4 °F 8.6 °F 6.8 °F 58% 30.54 in 10.0 mi SE 9.2 mph - N/A   Clear
6:15 AM 19.4 °F 7.2 °F 5.0 °F 54% 30.54 in 10.0 mi SE 11.5 mph - N/A   Clear
6:35 AM 19.4 °F 8.6 °F 5.0 °F 54% 30.54 in 10.0 mi SE 9.2 mph - N/A   Clear
6:55 AM 17.6 °F 6.4 °F 5.0 °F 58% 30.55 in 10.0 mi ESE 9.2 mph - N/A   Clear
7:15 AM 17.6 °F 6.4 °F 5.0 °F 58% 30.55 in 10.0 mi SE 9.2 mph - N/A   Clear
7:35 AM 17.6 °F 6.4 °F 5.0 °F 58% 30.55 in 10.0 mi SE 9.2 mph - N/A   Clear
7:55 AM 19.4 °F 10.4 °F 5.0 °F 54% 30.56 in 10.0 mi SE 6.9 mph - N/A   Clear
8:15 AM 19.4 °F 9.5 °F 5.0 °F 54% 30.56 in 10.0 mi SE 8.1 mph - N/A   Clear
8:35 AM 19.4 °F 9.5 °F 5.0 °F 54% 30.56 in 10.0 mi ESE 8.1 mph - N/A   Clear
8:55 AM 23.0 °F 15.8 °F 5.0 °F 46% 30.56 in 10.0 mi ESE 5.8 mph - N/A   Clear
9:15 AM 24.8 °F 16.9 °F 5.0 °F 43% 30.56 in 10.0 mi SE 6.9 mph - N/A   Clear
9:35 AM 26.6 °F 21.2 °F 3.2 °F 37% 30.56 in 10.0 mi ESE 4.6 mph - N/A   Clear
9:55 AM 28.4 °F 22.2 °F 5.0 °F 37% 30.56 in 10.0 mi SE 5.8 mph - N/A   Clear
10:15 AM 32.0 °F 26.4 °F 3.2 °F 30% 30.55 in 10.0 mi SE 5.8 mph - N/A   Clear
10:35 AM 32.0 °F 26.4 °F 3.2 °F 30% 30.54 in 10.0 mi SE 5.8 mph - N/A   Clear
10:55 AM 37.4 °F 32.8 °F 5.0 °F 26% 30.54 in 10.0 mi SSE 5.8 mph - N/A   Clear
11:15 AM 41.0 °F - 5.0 °F 23% 30.53 in 10.0 mi Calm Calm - N/A   Clear
11:35 AM 41.0 °F 39.0 °F 5.0 °F 23% 30.52 in 10.0 mi SSE 3.5 mph - N/A   Clear
12:15 PM 46.4 °F - 6.8 °F 20% 30.50 in 10.0 mi Calm Calm - N/A   Clear
12:35 PM 46.4 °F 43.5 °F 6.8 °F 20% 30.49 in 10.0 mi SE 5.8 mph - N/A   Clear
12:55 PM 48.2 °F - 6.8 °F 19% 30.48 in 10.0 mi East 3.5 mph - N/A   Clear
1:15 PM 48.2 °F - 6.8 °F 19% 30.47 in 10.0 mi East 4.6 mph - N/A   Clear
1:35 PM 48.2 °F - 8.6 °F 20% 30.47 in 10.0 mi East 4.6 mph - N/A   Clear
1:55 PM 48.2 °F - 8.6 °F 20% 30.47 in 10.0 mi SE 5.8 mph - N/A   Clear
2:15 PM 48.2 °F - 8.6 °F 20% 30.47 in 10.0 mi East 5.8 mph - N/A   Clear
2:35 PM 50.0 °F - 6.8 °F 17% 30.46 in 10.0 mi ESE 4.6 mph - N/A   Clear
2:55 PM 50.0 °F - 6.8 °F 17% 30.47 in 10.0 mi SE 4.6 mph - N/A   Clear
3:15 PM 50.0 °F - 5.0 °F 16% 30.46 in 10.0 mi SSE 4.6 mph - N/A   Clear
3:35 PM 50.0 °F - 5.0 °F 16% 30.46 in 10.0 mi SE 3.5 mph - N/A   Clear
3:55 PM 50.0 °F - 5.0 °F 16% 30.46 in 8.0 mi ESE 3.5 mph - N/A   Clear
4:15 PM 48.2 °F - 6.8 °F 19% 30.46 in 10.0 mi ESE 4.6 mph - N/A   Clear
4:35 PM 46.4 °F 44.3 °F 6.8 °F 20% 30.46 in 10.0 mi ESE 4.6 mph - N/A   Clear
4:55 PM 44.6 °F 43.1 °F 6.8 °F 21% 30.46 in 10.0 mi SE 3.5 mph - N/A   Clear
5:15 PM 41.0 °F 37.1 °F 8.6 °F 26% 30.46 in 10.0 mi SE 5.8 mph - N/A   Clear
5:35 PM 39.2 °F 35.0 °F 8.6 °F 28% 30.46 in 10.0 mi SE 5.8 mph - N/A   Clear
5:55 PM 37.4 °F - 8.6 °F 30% 30.46 in 10.0 mi Calm Calm - N/A   Clear
6:15 PM 33.8 °F 28.6 °F 10.4 °F 38% 30.46 in 10.0 mi SE 5.8 mph - N/A   Clear
6:55 PM 35.6 °F 31.7 °F 8.6 °F 33% 30.47 in 10.0 mi SE 4.6 mph - N/A   Clear
7:15 PM 32.0 °F 25.6 °F 10.4 °F 41% 30.47 in 10.0 mi SE 6.9 mph - N/A   Clear
7:35 PM 32.0 °F 26.4 °F 10.4 °F 41% 30.47 in 10.0 mi SE 5.8 mph - N/A   Clear
7:55 PM 32.0 °F 27.5 °F 10.4 °F 41% 30.47 in 10.0 mi SSE 4.6 mph - N/A   Clear
8:15 PM 32.0 °F 27.5 °F 10.4 °F 41% 30.47 in 10.0 mi SSE 4.6 mph - N/A   Clear
8:35 PM 28.4 °F 23.3 °F 15.8 °F 59% 30.47 in 10.0 mi SSE 4.6 mph - N/A   Clear
8:55 PM 28.4 °F 23.3 °F 14.0 °F 55% 30.47 in 10.0 mi South 4.6 mph - N/A   Clear
9:15 PM 28.4 °F 22.2 °F 14.0 °F 55% 30.47 in 10.0 mi SSE 5.8 mph - N/A   Clear
9:35 PM 28.4 °F 22.2 °F 14.0 °F 55% 30.47 in 10.0 mi SE 5.8 mph - N/A   Clear
9:55 PM 30.2 °F 23.4 °F 12.2 °F 47% 30.47 in 10.0 mi SE 6.9 mph - N/A   Clear
10:15 PM 28.4 °F 23.3 °F 12.2 °F 51% 30.47 in 10.0 mi SSE 4.6 mph - N/A   Clear
10:35 PM 28.4 °F 20.4 °F 14.0 °F 55% 30.47 in 10.0 mi ESE 8.1 mph - N/A   Clear
10:55 PM 28.4 °F 20.4 °F 10.4 °F 47% 30.47 in 10.0 mi SE 8.1 mph - N/A   Clear
11:15 PM 28.4 °F 20.4 °F 10.4 °F 47% 30.47 in 10.0 mi SE 8.1 mph - N/A   Clear
11:35 PM 28.4 °F 20.4 °F 10.4 °F 47% 30.47 in 10.0 mi SE 8.1 mph - N/A   Clear
11:55 PM 28.4 °F 21.2 °F 10.4 °F 47% 30.47 in 10.0 mi SE 6.9 mph - N/A   Clear